Volver al catálogo

SL-16 DEB

ActivoSSO
NORAD 27690·DEBRIS·🇷🇺 Russia

Lanzado Dec 10, 2001 desde Baikonur Cosmodrome

Loading…

Próximos Pases (próximas 24 horas)

TLE

ActualizadoSource: Space-Track

Época: Sep 14, 2026, 11:49 UTC

1 27690U 01056J   26257.49239909 -.00000019  00000-0  51207-4 0  9993
2 27690 100.3594 127.2633 0182982  25.8403  91.3056 13.31101961202367

Sigue SL-16 DEB en tiempo real con AllMySat

Download on the App Store